Terminal Aerodrome Forecast
Issued by NWS

Home | Current Version | Previous Version | Graphics & Text | Print | Product List | Glossary On
Versions: 1 2 3 4 5 6 7 8 9 10 11 12 13 14 15 16 17 18 19 20 21 22 23 24 25 26 27 28 29 30 31
000
FTUS43 KLOT 230800 AAA
TAFGYY
TAF AMD
KGYY 230843Z 2309/2406 01010G15KT P6SM SKC
     FM231600 03009KT P6SM SCT200
     FM240000 08007KT P6SM BKN090 OVC250
     FM240400 09006KT P6SM VCSH BKN060 OVC090=

USA.gov is the U.S. government's official web portal to all federal, state and local government web resources and services.